[[{"header":{"parameterUnit":"m.s-1","parameterCategory":1,"la1":30.2991,"la2":30.254,"lo1":-89.0895,"lo2":-89.0444,"dy":0.0017,"dx":0.0017,"nx":28,"ny":28,"refTime":"2026-02-05T09:00:00:Z","depth":0,"parameterNumber":2,"parameterNumberName":"U-component_of_WINDS"},"data":[0,0,0,0,0,0,0,0,0,0,0,0,0,0,0,0,0,0,0,0,0,0,0,0,0,0,0,0,0,0,0,0,0,0,0,0,0,0,0,0,0,0,0,0,0,0,0,0,0,0,0,0,0,0,0,0,0,0,2.5849,2.5849,0,2.59,2.59,2.5901,2.5838,2.5836,2.5833,2.5831,2.5888,2.5891,2.5895,0,0,0,0,0,0,0,0,0,0,0,0,0,2.5703,2.5706,2.5849,2.585,2.585,2.59,2.59,2.5901,2.5839,2.5836,2.5833,2.583,2.5886,2.5891,2.5895,0,0,0,0,0,0,0,0,0,0,0,0,0,2.5762,2.5707,2.5849,2.5825,2.5823,2.5899,2.59,2.5901,2.5839,2.5836,2.5832,2.5829,2.5885,2.589,2.5896,2.5999,0,0,2.5913,2.5915,0,0,0,0,0,0,0,0,2.5759,2.5767,2.5828,2.5827,2.5825,2.5859,2.587,2.5934,2.584,2.5833,2.5831,2.5827,2.5881,2.5887,2.5904,2.6002,2.6004,2.5913,2.5916,2.5919,2.592,0,0,0,0,0,0,0,2.5755,2.5765,2.5869,2.5829,2.5827,2.5813,2.5818,2.5882,2.5876,2.5834,2.5829,2.5836,2.588,2.5899,2.5905,2.6005,2.5913,2.5918,2.5921,2.5923,2.6194,2.6198,0,0,0,0,0,0,2.5753,2.5762,2.5867,2.5871,2.5782,2.5819,2.5824,2.5852,2.5875,2.5876,2.5839,2.5833,2.5891,2.5899,2.5907,2.6032,2.5919,2.5924,2.5927,2.6191,2.6195,2.6199,0,0,0,0,0,0,2.575,2.5763,2.5865,2.5815,2.5827,2.5825,2.5857,2.5854,2.5873,2.5879,2.5878,2.5859,2.5889,2.5899,2.5977,2.6033,2.5926,2.5931,2.6186,2.6192,2.6197,2.6282,0,0,0,0,0,0,2.5746,2.5762,2.58,2.5816,2.583,2.5934,2.586,2.5858,2.5883,2.5875,2.5898,2.5898,2.5887,2.5969,2.5983,2.6039,2.5936,2.6181,2.6189,2.6196,2.6274,2.629,2.6303,0,0,0,0,0,2.5741,2.5822,2.5802,2.5815,2.5877,2.5937,2.5945,2.5929,2.5887,2.5927,2.5931,2.5898,2.6024,2.5978,2.5992,2.6051,2.6177,2.6186,2.6195,2.6268,2.6287,2.6303,0,0,0,0,0,0,2.5813,2.5823,2.5802,2.589,2.5913,2.5926,2.5975,2.5949,2.5985,2.5977,2.5957,2.5963,2.6047,2.6056,2.6004,2.6154,2.6094,2.6107,2.6145,2.6163,2.6177,2.6174,2.594,0,0,0,0,0,2.5839,2.5885,2.5892,2.597,2.5982,2.5977,2.6002,2.5988,2.6012,2.6021,2.6031,2.6057,2.6102,2.6133,2.6175,2.6275,2.6281,2.6322,2.6337,2.6349,2.636,2.6417,2.6437,2.6228,2.6228,2.6228,0,0,2.5893,2.5905,2.5935,2.5985,2.6001,2.6051,2.5985,2.6041,2.6079,2.603,2.6105,2.6113,2.6141,2.6231,2.6271,2.6242,2.6419,2.636,2.637,2.6375,2.6428,2.6448,2.6465,2.6234,2.6233,2.6232,0,0,2.6019,2.6031,2.6098,2.6116,2.6141,2.6137,2.6153,2.6171,2.6174,2.6249,2.6214,2.626,2.6338,2.636,2.6381,2.6518,2.649,2.6532,2.6609,2.6665,2.6681,2.6696,2.6747,2.6765,2.6543,2.6543,2.6543,0,2.6084,2.6157,2.6136,2.6195,2.6219,2.6176,2.6245,2.6264,2.6302,2.6321,2.6287,2.6386,2.6401,2.6498,2.6531,2.6549,2.6569,2.653,2.668,2.6694,2.6708,2.6757,2.6776,2.6548,2.6548,2.6547,2.6547,0,2.6237,2.6288,2.634,2.6377,2.6407,2.647,2.6462,2.6495,2.6478,2.6479,2.6557,2.6574,2.6621,2.6642,2.6627,2.6737,2.6719,2.6683,2.6623,2.6733,2.6779,2.6797,2.6556,2.6554,2.6552,2.6551,0,0,2.6409,2.6435,2.6454,2.6472,2.6497,2.6538,2.6601,2.6645,2.6675,2.6703,2.6758,2.6826,2.6794,2.6818,2.6805,2.6854,2.6965,2.6812,2.6813,2.6842,2.7091,2.7119,2.7141,2.6946,2.6949,2.6952,2.709,0,2.6536,2.6644,2.6628,2.6733,2.6782,2.6743,2.6799,2.6822,2.6825,2.6868,2.6872,2.6922,2.6873,2.6889,2.6935,2.6941,2.7015,2.6931,2.6999,2.7001,2.6995,2.7164,2.7194,2.7323,2.7107,2.711,2.7112,0,2.6699,2.6733,2.6842,2.6863,2.6883,2.6932,2.6973,2.7014,2.7041,2.704,2.7068,2.7047,2.7113,2.7051,2.7144,2.7087,2.7114,2.7122,2.7127,2.7134,2.7065,2.7179,2.7364,2.7384,2.714,2.7137,2.7135,0,2.6817,2.689,2.6965,2.6981,2.7006,2.7043,2.7055,2.7078,2.7106,2.7142,2.7161,2.7205,2.723,2.7266,2.7258,2.7213,2.7354,2.729,2.7357,2.7358,2.739,2.7388,2.7584,2.7404,2.7404,2.7403,2.7403,0,2.6961,2.7031,2.7019,2.7065,2.7143,2.7125,2.7203,2.7211,2.7232,2.7282,2.7251,2.7298,2.7285,2.7332,2.7327,2.7406,2.7417,2.742,2.7418,2.7424,2.7424,2.7443,2.7435,2.7408,2.7407,2.7406,2.7405,0,2.7106,2.71,2.7181,2.7198,2.7204,2.7261,2.7276,2.7322,2.7322,2.7386,2.74,2.7402,2.7457,2.7452,2.7514,2.7511,2.761,2.7596,2.7601,2.7599,2.7667,2.7662,2.7883,2.7913,2.7711,2.7713,2.7715,0,2.72,2.7252,2.7275,2.7306,2.7321,2.737,2.7399,2.7384,2.7417,2.7452,2.7494,2.7546,2.7587,2.7677,2.7685,2.7734,2.7722,2.7797,2.773,2.7735,2.7727,2.7725,2.7731,2.7811,2.7813,2.7815,2.7816,0,2.7368,2.7363,2.7405,2.7448,2.7483,2.7516,2.7546,2.7573,2.7562,2.76,2.7656,2.7687,2.7751,2.7804,2.785,2.7865,2.7841,2.7837,2.7856,2.7863,2.7865,2.7868,2.7639,2.7833,2.7831,2.783,2.7829,2.7828,2.7492,2.7538,2.7562,2.7611,2.7632,2.7661,2.7705,2.7711,2.7757,2.7807,2.7796,2.7859,2.7887,2.7947,2.7966,2.8018,2.7991,2.8017,2.8024,2.8032,2.8041,2.7855,2.8026,2.8025,2.8025,2.8024,2.8024,0,2.7661,2.7674,2.7719,2.7762,2.7802,2.7773,2.7805,2.7841,2.7897,2.7924,2.7965,2.8031,2.8083,2.8095,2.8146,2.8185,2.8175,2.8199,2.8197,2.8202,2.806,2.804,2.8206,2.8206,2.8206,2.8206,2.8206,2.8206,2.7753,2.783,2.7829,2.7917,2.793,2.7991,2.8012,2.804,2.8063,2.8137,2.8179,2.8187,2.821,2.8262,2.831,2.8312,2.8334,2.8363,2.8362,2.8229,2.8211,2.8194,2.8175,2.8367,2.8367,2.8499,2.85,2.8501]},{"header":{"parameterUnit":"m.s-1","parameterCategory":1,"la1":30.2991,"la2":30.254,"lo1":-89.0895,"lo2":-89.0444,"dy":0.0017,"dx":0.0017,"nx":28,"ny":28,"refTime":"2026-02-05T09:00:00:Z","depth":0,"parameterNumber":3,"parameterNumberName":"V-component_of_WINDS"},"data":[0,0,0,0,0,0,0,0,0,0,0,0,0,0,0,0,0,0,0,0,0,0,0,0,0,0,0,0,0,0,0,0,0,0,0,0,0,0,0,0,0,0,0,0,0,0,0,0,0,0,0,0,0,0,0,0,0,0,-3.1252,-3.1252,0,-3.126,-3.126,-3.126,-3.1298,-3.1299,-3.13,-3.1301,-3.1305,-3.1304,-3.1303,0,0,0,0,0,0,0,0,0,0,0,0,0,-3.1268,-3.1267,-3.1252,-3.1252,-3.1252,-3.126,-3.126,-3.126,-3.1298,-3.1299,-3.13,-3.1301,-3.1305,-3.1304,-3.1303,0,0,0,0,0,0,0,0,0,0,0,0,0,-3.1266,-3.1267,-3.1252,-3.1272,-3.1274,-3.126,-3.126,-3.126,-3.1298,-3.1299,-3.1301,-3.1302,-3.1305,-3.1304,-3.1303,-3.1269,0,0,-3.13,-3.1299,0,0,0,0,0,0,0,0,-3.1267,-3.1266,-3.1269,-3.1271,-3.1273,-3.128,-3.1267,-3.1263,-3.1297,-3.1289,-3.1301,-3.1303,-3.1295,-3.1295,-3.1293,-3.1269,-3.1269,-3.13,-3.1299,-3.1298,-3.1298,0,0,0,0,0,0,0,-3.1267,-3.1266,-3.1255,-3.1269,-3.1272,-3.128,-3.1281,-3.1266,-3.1284,-3.129,-3.1292,-3.1293,-3.1296,-3.1294,-3.1294,-3.1269,-3.13,-3.1299,-3.1298,-3.1298,-3.1218,-3.1216,0,0,0,0,0,0,-3.1264,-3.1266,-3.1255,-3.1255,-3.1273,-3.1279,-3.128,-3.1276,-3.1284,-3.1287,-3.1292,-3.1295,-3.1295,-3.1295,-3.1294,-3.1255,-3.1298,-3.1297,-3.1297,-3.1219,-3.1217,-3.1216,0,0,0,0,0,0,-3.1264,-3.1263,-3.1255,-3.1261,-3.1261,-3.1277,-3.1272,-3.1275,-3.1273,-3.1286,-3.1289,-3.1287,-3.1296,-3.1295,-3.1275,-3.1255,-3.1297,-3.1296,-3.1221,-3.1219,-3.1217,-3.1176,0,0,0,0,0,0,-3.1265,-3.1263,-3.1251,-3.1261,-3.126,-3.1237,-3.1271,-3.1275,-3.1272,-3.1276,-3.1282,-3.1284,-3.1297,-3.1277,-3.1274,-3.1255,-3.1295,-3.1223,-3.122,-3.1217,-3.1179,-3.1172,-3.1167,0,0,0,0,0,-3.1265,-3.1238,-3.125,-3.1248,-3.1246,-3.1235,-3.1235,-3.1252,-3.127,-3.1258,-3.1266,-3.1284,-3.1258,-3.1274,-3.1272,-3.1251,-3.1224,-3.1221,-3.1218,-3.1182,-3.1174,-3.1167,0,0,0,0,0,0,-3.1223,-3.1239,-3.1253,-3.1228,-3.123,-3.1242,-3.1227,-3.1243,-3.1239,-3.1243,-3.1263,-3.1264,-3.1241,-3.1244,-3.1262,-3.1219,-3.1244,-3.124,-3.1218,-3.121,-3.1204,-3.1204,-3.1294,0,0,0,0,0,-3.1211,-3.1203,-3.1217,-3.1193,-3.1194,-3.121,-3.1206,-3.1219,-3.1222,-3.1222,-3.1229,-3.123,-3.1222,-3.1216,-3.121,-3.118,-3.1182,-3.1165,-3.1158,-3.1154,-3.115,-3.1135,-3.1127,-3.1205,-3.1205,-3.1205,0,0,-3.1186,-3.1194,-3.1187,-3.1185,-3.1189,-3.1178,-3.121,-3.1198,-3.1191,-3.122,-3.1202,-3.1207,-3.1209,-3.1184,-3.1173,-3.1186,-3.1129,-3.1149,-3.1145,-3.1144,-3.1131,-3.1123,-3.1117,-3.1203,-3.1203,-3.1204,0,0,-3.1135,-3.114,-3.1122,-3.1125,-3.113,-3.1141,-3.1136,-3.1146,-3.1151,-3.1133,-3.1155,-3.1146,-3.1132,-3.1133,-3.1131,-3.1082,-3.1099,-3.1079,-3.1048,-3.1033,-3.1026,-3.1021,-3.1004,-3.0997,-3.1075,-3.1075,-3.1075,0,-3.1103,-3.1089,-3.111,-3.1097,-3.1095,-3.1123,-3.1104,-3.1106,-3.1108,-3.1106,-3.112,-3.1104,-3.1107,-3.1083,-3.1072,-3.1069,-3.1065,-3.1078,-3.1026,-3.1021,-3.1016,-3.1,-3.0993,-3.1073,-3.1073,-3.1073,-3.1074,0,-3.105,-3.104,-3.1024,-3.1028,-3.1024,-3.1008,-3.1025,-3.102,-3.1033,-3.1042,-3.1024,-3.1029,-3.1025,-3.102,-3.1032,-3.0997,-3.1005,-3.1023,-3.1048,-3.1006,-3.0991,-3.0985,-3.107,-3.107,-3.1071,-3.1072,0,0,-3.0972,-3.0987,-3.0981,-3.0983,-3.0991,-3.0984,-3.0969,-3.0966,-3.0961,-3.0961,-3.0949,-3.0937,-3.0954,-3.0952,-3.0965,-3.0951,-3.0913,-3.0971,-3.0971,-3.096,-3.0875,-3.0862,-3.0855,-3.0924,-3.0923,-3.0922,-3.0875,0,-3.0923,-3.09,-3.0918,-3.0892,-3.0883,-3.091,-3.0897,-3.09,-3.0908,-3.0902,-3.091,-3.0902,-3.0924,-3.0923,-3.0912,-3.092,-3.0896,-3.0923,-3.0912,-3.0911,-3.0911,-3.0847,-3.0833,-3.0788,-3.0869,-3.0868,-3.0868,0,-3.0864,-3.0864,-3.0836,-3.0847,-3.0844,-3.0832,-3.0832,-3.0825,-3.0829,-3.0836,-3.0835,-3.0851,-3.0837,-3.0862,-3.0842,-3.0861,-3.0857,-3.0861,-3.0859,-3.0859,-3.0887,-3.0845,-3.0775,-3.0768,-3.0858,-3.0859,-3.086,0,-3.081,-3.0803,-3.0786,-3.0787,-3.0799,-3.079,-3.0794,-3.08,-3.0797,-3.0796,-3.0794,-3.0791,-3.0789,-3.0785,-3.08,-3.0817,-3.0778,-3.0805,-3.0783,-3.0783,-3.0774,-3.0774,-3.0702,-3.0771,-3.0771,-3.0771,-3.0772,0,-3.0754,-3.0737,-3.0762,-3.0752,-3.0732,-3.0753,-3.0733,-3.0741,-3.0745,-3.0736,-3.0759,-3.0749,-3.077,-3.0762,-3.0773,-3.0755,-3.0754,-3.0759,-3.0762,-3.0757,-3.0756,-3.0755,-3.0758,-3.077,-3.077,-3.077,-3.0771,0,-3.0691,-3.0707,-3.0691,-3.0704,-3.0707,-3.0692,-3.0704,-3.0694,-3.0704,-3.0692,-3.0691,-3.0706,-3.0699,-3.0714,-3.0707,-3.0715,-3.069,-3.0698,-3.0689,-3.0692,-3.0669,-3.0671,-3.0594,-3.0585,-3.0659,-3.0659,-3.0658,0,-3.0654,-3.0642,-3.0654,-3.0651,-3.0654,-3.0647,-3.0645,-3.0665,-3.0662,-3.0666,-3.0656,-3.0651,-3.0648,-3.0634,-3.0644,-3.064,-3.0648,-3.0621,-3.0647,-3.0643,-3.0648,-3.0649,-3.0647,-3.0616,-3.0615,-3.0614,-3.0614,0,-3.0588,-3.0597,-3.0593,-3.0593,-3.059,-3.0591,-3.0592,-3.0588,-3.0609,-3.0604,-3.0597,-3.0595,-3.059,-3.0584,-3.0583,-3.0586,-3.0603,-3.0605,-3.06,-3.0595,-3.059,-3.0593,-3.0675,-3.0607,-3.0608,-3.0608,-3.0608,-3.0609,-3.0537,-3.0527,-3.0535,-3.053,-3.0534,-3.0536,-3.0528,-3.0538,-3.0533,-3.0531,-3.0543,-3.0534,-3.0539,-3.0539,-3.0541,-3.0533,-3.0545,-3.0537,-3.0535,-3.0533,-3.053,-3.0592,-3.0533,-3.0533,-3.0533,-3.0533,-3.0534,0,-3.0471,-3.0478,-3.0474,-3.0477,-3.0473,-3.0491,-3.0494,-3.049,-3.0482,-3.0486,-3.0483,-3.0475,-3.047,-3.0481,-3.0477,-3.0469,-3.0477,-3.0468,-3.0468,-3.0469,-3.0519,-3.0524,-3.0462,-3.0462,-3.0462,-3.0462,-3.0462,-3.0462,-3.0437,-3.0422,-3.0432,-3.0418,-3.0425,-3.0417,-3.0418,-3.0419,-3.0422,-3.0414,-3.041,-3.0417,-3.0424,-3.0421,-3.0417,-3.042,-3.0418,-3.0406,-3.0411,-3.0458,-3.0465,-3.0472,-3.0477,-3.0405,-3.0405,-3.0362,-3.0361,-3.0361]}]]